Time,TemperatureF,DewpointF,PressureIn,WindDirection,WindDirectionDegrees,WindSpeedMPH,WindSpeedGustMPH,Humidity,HourlyPrecipIn,Conditions,Clouds,dailyrainin,SoftwareType,DateUTC
2013-08-03 00:00:00,63.4,58.2,29.93,East,86,0.0,3.0,83,0.00,,,0.01,VWS V15.00,2013-08-03 06:00:00,
2013-08-03 00:02:00,63.4,58.2,29.93,East,89,0.0,3.0,83,0.00,,SKC,0.01,VWS V14.01,2013-08-03 06:02:00,
2013-08-03 00:07:00,63.4,58.5,29.92,SE,136,0.0,0.0,84,0.00,,SKC,0.00,VWS V14.01,2013-08-03 06:07:00,
2013-08-03 00:12:00,63.3,58.4,29.92,ESE,107,0.0,0.0,84,0.00,,SKC,0.00,VWS V14.01,2013-08-03 06:12:00,
2013-08-03 00:17:00,63.3,58.4,29.92,East,85,0.0,0.0,84,0.00,,SKC,0.00,VWS V14.01,2013-08-03 06:17:00,
2013-08-03 00:22:00,63.3,58.4,29.93,East,85,0.0,0.0,84,0.00,,SKC,0.00,VWS V14.01,2013-08-03 06:22:00,
2013-08-03 00:27:00,63.3,58.4,29.92,ENE,73,0.0,0.0,84,0.00,,SKC,0.00,VWS V14.01,2013-08-03 06:27:00,
2013-08-03 00:30:00,63.3,58.4,29.91,NNE,26,0.0,5.0,84,0.00,,,0.00,VWS V15.00,2013-08-03 06:30:00,
2013-08-03 00:32:00,63.3,58.4,29.91,SSE,167,1.0,5.0,84,0.00,,SKC,0.00,VWS V14.01,2013-08-03 06:32:00,
2013-08-03 00:37:00,63.2,58.3,29.91,SSE,162,2.0,5.0,84,0.00,,SKC,0.00,VWS V14.01,2013-08-03 06:37:00,
2013-08-03 00:42:00,63.2,58.3,29.91,ENE,69,0.0,5.0,84,0.00,,SKC,0.00,VWS V14.01,2013-08-03 06:42:00,
2013-08-03 00:47:00,63.1,58.2,29.90,East,84,5.0,7.0,84,0.00,,SKC,0.00,VWS V14.01,2013-08-03 06:47:00,
2013-08-03 00:52:00,63.0,58.1,29.92,ESE,119,5.0,7.0,84,0.00,,SKC,0.00,VWS V14.01,2013-08-03 06:52:00,
2013-08-03 00:57:00,63.0,58.1,29.92,SE,140,1.0,8.0,84,0.00,,SKC,0.00,VWS V14.01,2013-08-03 06:57:00,
2013-08-03 01:00:00,63.1,58.5,29.92,SE,132,2.0,8.0,85,0.00,,,0.00,VWS V15.00,2013-08-03 07:00:00,
2013-08-03 01:02:00,63.0,58.4,29.92,ESE,118,3.0,8.0,85,0.00,,SKC,0.00,VWS V14.01,2013-08-03 07:02:00,
2013-08-03 01:07:00,63.1,58.5,29.92,SE,139,2.0,6.0,85,0.00,,SKC,0.00,VWS V14.01,2013-08-03 07:07:00,
2013-08-03 01:12:00,63.0,58.4,29.92,SE,146,2.0,7.0,85,0.00,,SKC,0.00,VWS V14.01,2013-08-03 07:12:00,
2013-08-03 01:17:00,63.0,58.4,29.92,SE,138,1.0,7.0,85,0.00,,SKC,0.00,VWS V14.01,2013-08-03 07:17:00,
2013-08-03 01:22:00,63.0,58.4,29.91,East,81,0.0,7.0,85,0.00,,SKC,0.00,VWS V14.01,2013-08-03 07:22:00,
2013-08-03 01:27:00,62.9,58.3,29.91,East,82,0.0,7.0,85,0.00,,SKC,0.00,VWS V14.01,2013-08-03 07:27:00,
2013-08-03 01:30:00,62.6,58.0,29.93,East,87,0.0,7.0,85,0.00,,,0.00,VWS V15.00,2013-08-03 07:30:00,
2013-08-03 01:32:00,62.6,58.0,29.92,East,86,0.0,7.0,85,0.00,,SKC,0.00,VWS V14.01,2013-08-03 07:32:00,
2013-08-03 01:37:00,62.4,58.2,29.92,East,84,0.0,0.0,86,0.00,,SKC,0.00,VWS V14.01,2013-08-03 07:37:00,
2013-08-03 01:42:00,62.0,58.1,29.91,ENE,78,5.0,6.0,87,0.00,,SKC,0.00,VWS V14.01,2013-08-03 07:42:00,
2013-08-03 01:47:00,61.5,57.9,29.89,East,86,3.0,9.0,88,0.00,,SKC,0.00,VWS V14.01,2013-08-03 07:47:00,
2013-08-03 01:52:00,61.2,57.6,29.91,SE,128,0.0,9.0,88,0.00,,SKC,0.00,VWS V14.01,2013-08-03 07:52:00,
2013-08-03 01:57:00,60.8,57.5,29.90,East,80,2.0,9.0,89,0.01,,SKC,0.01,VWS V14.01,2013-08-03 07:57:00,
2013-08-03 02:00:00,60.7,57.8,29.90,East,87,0.0,9.0,90,0.01,,,0.01,VWS V15.00,2013-08-03 08:00:00,
2013-08-03 02:02:00,60.7,57.8,29.90,East,85,0.0,9.0,90,0.01,,SKC,0.01,VWS V14.01,2013-08-03 08:02:00,
2013-08-03 02:07:00,60.5,57.6,29.90,East,88,0.0,0.0,90,0.01,,SKC,0.01,VWS V14.01,2013-08-03 08:07:00,
2013-08-03 02:12:00,60.3,57.7,29.91,East,86,0.0,0.0,91,0.01,,SKC,0.01,VWS V14.01,2013-08-03 08:12:00,
2013-08-03 02:17:00,60.2,57.6,29.91,ESE,118,0.0,0.0,91,0.01,,SKC,0.01,VWS V14.01,2013-08-03 08:17:00,
2013-08-03 02:22:00,60.1,57.8,29.91,East,90,0.0,0.0,92,0.01,,SKC,0.01,VWS V14.01,2013-08-03 08:22:00,
2013-08-03 02:27:00,59.8,57.5,29.91,ENE,74,0.0,0.0,92,0.01,,SKC,0.01,VWS V14.01,2013-08-03 08:27:00,
2013-08-03 02:30:00,59.5,57.2,29.89,ENE,71,0.0,0.0,92,0.01,,,0.01,VWS V15.00,2013-08-03 08:30:00,
2013-08-03 02:32:00,59.6,57.3,29.89,ENE,71,0.0,0.0,92,0.01,,SKC,0.01,VWS V14.01,2013-08-03 08:32:00,
2013-08-03 02:37:00,59.4,57.1,29.89,ENE,75,0.0,0.0,92,0.01,,SKC,0.01,VWS V14.01,2013-08-03 08:37:00,
2013-08-03 02:42:00,59.4,57.1,29.91,ENE,71,0.0,3.0,92,0.01,,SKC,0.01,VWS V14.01,2013-08-03 08:42:00,
2013-08-03 02:47:00,59.4,57.1,29.92,ENE,71,0.0,3.0,92,0.01,,SKC,0.01,VWS V14.01,2013-08-03 08:47:00,
2013-08-03 02:52:00,59.4,57.4,29.92,ENE,71,0.0,3.0,93,0.01,,SKC,0.01,VWS V14.01,2013-08-03 08:52:00,
2013-08-03 02:57:00,59.3,57.3,29.92,ENE,74,0.0,3.0,93,0.01,,SKC,0.01,VWS V14.01,2013-08-03 08:57:00,
2013-08-03 03:00:00,59.3,57.3,29.91,East,97,0.0,3.0,93,0.01,,,0.01,VWS V15.00,2013-08-03 09:00:00,
2013-08-03 03:02:00,59.3,57.3,29.91,East,95,0.0,3.0,93,0.01,,SKC,0.01,VWS V14.01,2013-08-03 09:02:00,
2013-08-03 03:07:00,59.3,57.3,29.92,East,96,0.0,0.0,93,0.00,,SKC,0.01,VWS V14.01,2013-08-03 09:07:00,
2013-08-03 03:12:00,59.3,57.3,29.91,East,96,0.0,0.0,93,0.00,,SKC,0.01,VWS V14.01,2013-08-03 09:12:00,
2013-08-03 03:17:00,59.4,57.4,29.89,East,80,4.0,5.0,93,0.00,,SKC,0.01,VWS V14.01,2013-08-03 09:17:00,
2013-08-03 03:22:00,59.3,57.3,29.90,NNW,346,7.0,7.0,93,0.00,,SKC,0.01,VWS V14.01,2013-08-03 09:22:00,
2013-08-03 03:27:00,59.1,57.1,29.91,North,349,0.0,8.0,93,0.01,,SKC,0.02,VWS V14.01,2013-08-03 09:27:00,
2013-08-03 03:30:00,59.0,57.3,29.90,SSE,148,3.0,8.0,94,0.02,,,0.03,VWS V15.00,2013-08-03 09:30:00,
2013-08-03 03:32:00,59.0,57.3,29.90,East,89,0.0,8.0,94,0.01,,SKC,0.02,VWS V14.01,2013-08-03 09:32:00,
2013-08-03 03:37:00,59.1,57.4,29.91,SE,128,0.0,4.0,94,0.02,,SKC,0.03,VWS V14.01,2013-08-03 09:37:00,
2013-08-03 03:42:00,59.1,57.4,29.92,North,5,0.0,4.0,94,0.03,,SKC,0.04,VWS V14.01,2013-08-03 09:42:00,
2013-08-03 03:47:00,59.2,57.5,29.91,NNW,336,5.0,6.0,94,0.03,,SKC,0.04,VWS V14.01,2013-08-03 09:47:00,
2013-08-03 03:52:00,59.1,57.4,29.92,NNW,328,1.0,6.0,94,0.04,,SKC,0.05,VWS V14.01,2013-08-03 09:52:00,
2013-08-03 03:57:00,59.1,57.4,29.91,NNW,327,0.0,6.0,94,0.04,,SKC,0.05,VWS V14.01,2013-08-03 09:57:00,
2013-08-03 04:00:00,59.0,57.3,29.92,ESE,123,5.0,6.0,94,0.04,,,0.05,VWS V15.00,2013-08-03 10:00:00,
2013-08-03 04:02:00,59.1,57.4,29.93,NNW,329,0.0,6.0,94,0.04,,SKC,0.05,VWS V14.01,2013-08-03 10:02:00,
2013-08-03 04:07:00,59.0,57.3,29.90,SE,132,9.0,11.0,94,0.04,,SKC,0.05,VWS V14.01,2013-08-03 10:07:00,
2013-08-03 04:12:00,59.1,57.7,29.91,SSW,194,5.0,11.0,95,0.05,,SKC,0.06,VWS V14.01,2013-08-03 10:12:00,
2013-08-03 04:17:00,59.1,57.7,29.90,South,180,3.0,11.0,95,0.06,,SKC,0.07,VWS V14.01,2013-08-03 10:17:00,
2013-08-03 04:22:00,59.1,57.7,29.89,SE,137,10.0,12.0,95,0.07,,SKC,0.08,VWS V14.01,2013-08-03 10:22:00,
2013-08-03 04:27:00,59.3,57.9,29.90,ESE,121,11.0,12.0,95,0.08,,SKC,0.09,VWS V14.01,2013-08-03 10:27:00,
2013-08-03 04:30:00,59.4,58.0,29.85,East,88,10.0,16.0,95,0.09,,,0.10,VWS V15.00,2013-08-03 10:30:00,
2013-08-03 04:32:00,59.3,57.9,29.85,SE,133,12.0,16.0,95,0.09,,SKC,0.10,VWS V14.01,2013-08-03 10:32:00,
2013-08-03 04:37:00,59.4,58.0,29.85,SE,129,7.0,17.0,95,0.07,,SKC,0.10,VWS V14.01,2013-08-03 10:37:00,
2013-08-03 04:42:00,59.5,58.1,29.85,SE,128,7.0,17.0,95,0.07,,SKC,0.10,VWS V14.01,2013-08-03 10:42:00,
2013-08-03 04:47:00,59.6,58.2,29.84,East,90,0.0,17.0,95,0.07,,SKC,0.10,VWS V14.01,2013-08-03 10:47:00,
2013-08-03 04:52:00,59.7,58.3,29.88,NNW,329,5.0,17.0,95,0.08,,SKC,0.11,VWS V14.01,2013-08-03 10:52:00,
2013-08-03 04:57:00,59.8,58.4,29.89,NNW,344,6.0,17.0,95,0.08,,SKC,0.11,VWS V14.01,2013-08-03 10:57:00,
2013-08-03 05:00:00,59.8,58.4,29.90,North,350,0.0,17.0,95,0.08,,,0.11,VWS V15.00,2013-08-03 11:00:00,
2013-08-03 05:02:00,59.8,58.4,29.89,North,350,0.0,17.0,95,0.08,,SKC,0.11,VWS V14.01,2013-08-03 11:02:00,
2013-08-03 05:07:00,59.8,58.4,29.92,NE,36,10.0,10.0,95,0.06,,SKC,0.11,VWS V14.01,2013-08-03 11:07:00,
2013-08-03 05:12:00,59.6,58.2,29.92,NNE,23,4.0,10.0,95,0.06,,SKC,0.11,VWS V14.01,2013-08-03 11:12:00,
2013-08-03 05:17:00,59.4,58.0,29.92,ENE,69,4.0,10.0,95,0.06,,SKC,0.11,VWS V14.01,2013-08-03 11:17:00,
2013-08-03 05:22:00,59.0,57.6,29.92,ENE,78,4.0,10.0,95,0.06,,SKC,0.11,VWS V14.01,2013-08-03 11:22:00,
2013-08-03 05:27:00,59.0,57.6,29.93,East,79,2.0,10.0,95,0.06,,SKC,0.11,VWS V14.01,2013-08-03 11:27:00,
2013-08-03 05:30:00,59.0,57.9,29.95,NNE,33,0.0,10.0,96,0.06,,,0.11,VWS V15.00,2013-08-03 11:30:00,
2013-08-03 05:32:00,59.0,57.9,29.95,NE,37,0.0,10.0,96,0.06,,SKC,0.11,VWS V14.01,2013-08-03 11:32:00,
2013-08-03 05:37:00,59.0,57.9,29.95,NNW,329,0.0,0.0,96,0.01,,SKC,0.11,VWS V14.01,2013-08-03 11:37:00,
2013-08-03 05:42:00,59.0,57.9,29.94,NNW,329,0.0,0.0,96,0.01,,SKC,0.11,VWS V14.01,2013-08-03 11:42:00,
2013-08-03 05:47:00,59.0,57.9,29.95,NNW,329,0.0,0.0,96,0.01,,SKC,0.11,VWS V14.01,2013-08-03 11:47:00,
2013-08-03 05:52:00,59.0,57.6,29.94,NNW,329,0.0,0.0,95,0.01,,SKC,0.11,VWS V14.01,2013-08-03 11:52:00,
2013-08-03 05:57:00,59.0,57.9,29.95,NNW,329,0.0,0.0,96,0.01,,SKC,0.11,VWS V14.01,2013-08-03 11:57:00,
2013-08-03 06:00:00,59.0,57.9,29.96,NNW,329,0.0,0.0,96,0.01,,,0.11,VWS V15.00,2013-08-03 12:00:00,
2013-08-03 06:02:00,59.0,57.9,29.96,NNW,329,0.0,0.0,96,0.01,,SKC,0.11,VWS V14.01,2013-08-03 12:02:00,
2013-08-03 06:07:00,59.0,57.9,29.97,NNW,329,0.0,0.0,96,0.00,,SKC,0.11,VWS V14.01,2013-08-03 12:07:00,
2013-08-03 06:12:00,59.0,57.9,29.97,NNW,329,0.0,0.0,96,0.00,,SKC,0.11,VWS V14.01,2013-08-03 12:12:00,
2013-08-03 06:17:00,59.0,57.9,29.97,NNW,329,0.0,0.0,96,0.00,,SKC,0.11,VWS V14.01,2013-08-03 12:17:00,
2013-08-03 06:22:00,59.0,57.9,29.97,NNW,329,0.0,0.0,96,0.00,,SKC,0.11,VWS V14.01,2013-08-03 12:22:00,
2013-08-03 06:27:00,59.0,57.9,29.97,NNW,329,0.0,0.0,96,0.00,,SKC,0.11,VWS V14.01,2013-08-03 12:27:00,
2013-08-03 06:30:00,59.0,57.9,29.97,NNW,329,0.0,0.0,96,0.00,,,0.11,VWS V15.00,2013-08-03 12:30:00,
2013-08-03 06:32:00,59.0,57.9,29.97,NNW,329,0.0,0.0,96,0.00,,SKC,0.11,VWS V14.01,2013-08-03 12:32:00,
2013-08-03 06:37:00,59.1,58.0,29.97,NNW,329,0.0,0.0,96,0.00,,SKC,0.11,VWS V14.01,2013-08-03 12:37:00,
2013-08-03 06:42:00,59.1,58.0,29.97,NNW,329,0.0,0.0,96,0.00,,SKC,0.11,VWS V14.01,2013-08-03 12:42:00,
2013-08-03 06:47:00,59.2,58.1,29.98,South,169,0.0,0.0,96,0.00,,SKC,0.11,VWS V14.01,2013-08-03 12:47:00,
2013-08-03 06:52:00,59.2,58.1,29.97,SE,137,0.0,0.0,96,0.00,,SKC,0.11,VWS V14.01,2013-08-03 12:52:00,
2013-08-03 06:57:00,59.2,58.1,29.98,SE,136,0.0,0.0,96,0.00,,SKC,0.11,VWS V14.01,2013-08-03 12:57:00,
2013-08-03 07:00:00,59.3,58.2,29.98,East,85,0.0,0.0,96,0.00,,,0.11,VWS V15.00,2013-08-03 13:00:00,
2013-08-03 07:02:00,59.2,58.1,29.98,East,85,0.0,0.0,96,0.00,,SKC,0.11,VWS V14.01,2013-08-03 13:02:00,
2013-08-03 07:07:00,59.3,58.2,29.99,East,86,0.0,0.0,96,0.00,,SKC,0.11,VWS V14.01,2013-08-03 13:07:00,
2013-08-03 07:12:00,59.4,58.3,29.99,East,90,0.0,0.0,96,0.00,,SKC,0.11,VWS V14.01,2013-08-03 13:12:00,
2013-08-03 07:17:00,59.5,58.4,29.98,East,90,0.0,0.0,96,0.00,,SKC,0.11,VWS V14.01,2013-08-03 13:17:00,
2013-08-03 07:22:00,59.6,58.5,29.98,East,91,0.0,0.0,96,0.00,,SKC,0.11,VWS V14.01,2013-08-03 13:22:00,
2013-08-03 07:27:00,59.6,58.5,29.98,East,101,0.0,0.0,96,0.00,,SKC,0.11,VWS V14.01,2013-08-03 13:27:00,
2013-08-03 07:30:00,59.6,58.5,29.98,East,101,0.0,0.0,96,0.00,,,0.11,VWS V15.00,2013-08-03 13:30:00,
2013-08-03 07:32:00,59.6,58.5,29.98,East,101,0.0,0.0,96,0.00,,SKC,0.11,VWS V14.01,2013-08-03 13:32:00,
2013-08-03 07:37:00,59.7,58.6,29.98,ESE,102,0.0,0.0,96,0.00,,SKC,0.11,VWS V14.01,2013-08-03 13:37:00,
2013-08-03 07:42:00,59.8,58.7,29.99,East,85,0.0,0.0,96,0.00,,SKC,0.11,VWS V14.01,2013-08-03 13:42:00,
2013-08-03 07:48:00,59.8,58.7,29.99,East,84,0.0,0.0,96,0.00,,SKC,0.11,VWS V14.01,2013-08-03 13:48:00,
2013-08-03 07:52:00,59.8,58.7,29.99,SE,128,0.0,0.0,96,0.00,,SKC,0.11,VWS V14.01,2013-08-03 13:52:00,
2013-08-03 07:53:00,59.8,58.7,29.99,SE,128,0.0,0.0,96,0.00,,SKC,0.11,VWS V14.01,2013-08-03 13:53:00,
2013-08-03 07:58:00,59.9,58.8,29.99,SE,128,0.0,0.0,96,0.00,,SKC,0.11,VWS V14.01,2013-08-03 13:58:00,
2013-08-03 08:00:00,60.0,58.9,29.99,SE,129,0.0,0.0,96,0.00,,,0.11,VWS V15.00,2013-08-03 14:00:00,
2013-08-03 08:03:00,60.0,58.9,29.99,SE,130,0.0,0.0,96,0.00,,SKC,0.11,VWS V14.01,2013-08-03 14:03:00,
2013-08-03 08:08:00,60.2,59.3,29.99,SE,142,0.0,0.0,97,0.00,,SKC,0.11,VWS V14.01,2013-08-03 14:08:00,
2013-08-03 08:13:00,60.3,59.2,29.99,SSE,154,0.0,0.0,96,0.00,,SKC,0.11,VWS V14.01,2013-08-03 14:13:00,
2013-08-03 08:18:00,60.8,60.0,29.98,SSE,161,0.0,0.0,97,0.00,,SKC,0.11,VWS V14.01,2013-08-03 14:18:00,
2013-08-03 08:23:00,61.1,60.2,29.99,SSE,154,9.0,9.0,97,0.00,,SKC,0.11,VWS V14.01,2013-08-03 14:23:00,
2013-08-03 08:28:00,61.1,60.0,29.99,ESE,118,3.0,9.0,96,0.00,,SKC,0.11,VWS V14.01,2013-08-03 14:28:00,
2013-08-03 08:30:00,61.2,60.3,29.99,SE,136,0.0,9.0,97,0.00,,,0.11,VWS V15.00,2013-08-03 14:30:00,
2013-08-03 08:32:00,61.2,60.3,29.99,SE,133,0.0,9.0,97,0.00,,SKC,0.11,VWS V14.01,2013-08-03 14:32:00,
2013-08-03 08:38:00,61.6,60.7,29.98,SSE,165,5.0,7.0,97,0.00,,SKC,0.11,VWS V14.01,2013-08-03 14:38:00,
2013-08-03 08:43:00,62.2,61.3,29.98,SSE,152,4.0,7.0,97,0.00,,SKC,0.11,VWS V14.01,2013-08-03 14:43:00,
2013-08-03 08:48:00,62.6,61.7,29.97,SE,140,2.0,7.0,97,0.00,,SKC,0.11,VWS V14.01,2013-08-03 14:48:00,
2013-08-03 08:53:00,62.9,61.8,29.97,SSE,160,6.0,10.0,96,0.00,,SKC,0.11,VWS V14.01,2013-08-03 14:53:00,
2013-08-03 08:58:00,63.3,61.8,29.97,SSE,148,6.0,12.0,95,0.00,,SKC,0.11,VWS V14.01,2013-08-03 14:58:00,
2013-08-03 09:00:00,64.1,62.0,29.97,SE,146,10.0,13.0,93,0.00,,,0.11,VWS V15.00,2013-08-03 15:00:00,
2013-08-03 09:03:00,64.1,62.3,29.97,ESE,117,11.0,13.0,94,0.00,,SKC,0.11,VWS V14.01,2013-08-03 15:03:00,
2013-08-03 09:08:00,64.7,61.7,29.97,SE,136,10.0,12.0,90,0.00,,SKC,0.11,VWS V14.01,2013-08-03 15:08:00,
2013-08-03 09:13:00,65.3,61.7,29.97,SE,135,9.0,13.0,88,0.00,,SKC,0.11,VWS V14.01,2013-08-03 15:13:00,
2013-08-03 09:18:00,65.9,61.3,29.96,SSE,165,6.0,13.0,85,0.00,,SKC,0.11,VWS V14.01,2013-08-03 15:18:00,
2013-08-03 09:23:00,66.5,61.9,29.96,SSW,197,6.0,13.0,85,0.00,,SKC,0.11,VWS V14.01,2013-08-03 15:23:00,
2013-08-03 09:28:00,67.2,61.9,29.95,South,188,5.0,13.0,83,0.00,,SKC,0.11,VWS V14.01,2013-08-03 15:28:00,
2013-08-03 09:30:00,68.0,62.3,29.94,South,176,6.0,13.0,82,0.00,,,0.11,VWS V15.00,2013-08-03 15:30:00,
2013-08-03 09:33:00,67.9,62.2,29.94,South,177,8.0,13.0,82,0.00,,SKC,0.11,VWS V14.01,2013-08-03 15:33:00,
2013-08-03 09:38:00,68.4,62.3,29.95,SSE,150,10.0,10.0,81,0.00,,SKC,0.11,VWS V14.01,2013-08-03 15:38:00,
2013-08-03 09:43:00,68.8,62.4,29.94,SSE,156,4.0,10.0,80,0.00,,SKC,0.11,VWS V14.01,2013-08-03 15:43:00,
2013-08-03 09:48:00,69.2,62.1,29.94,SSE,164,3.0,10.0,78,0.00,,SKC,0.11,VWS V14.01,2013-08-03 15:48:00,
2013-08-03 09:53:00,69.6,62.1,29.94,SE,143,4.0,10.0,77,0.00,,SKC,0.11,VWS V14.01,2013-08-03 15:53:00,
2013-08-03 09:58:00,69.9,61.6,29.94,SE,129,9.0,11.0,75,0.00,,SKC,0.11,VWS V14.01,2013-08-03 15:58:00,
2013-08-03 10:00:00,70.0,61.3,29.95,SE,136,7.0,14.0,74,0.00,,,0.11,VWS V15.00,2013-08-03 16:00:00,
2013-08-03 10:03:00,70.0,61.3,29.95,SE,138,8.0,11.0,74,0.00,,SKC,0.11,VWS V14.01,2013-08-03 16:03:00,
2013-08-03 10:08:00,70.4,62.1,29.95,ESE,119,4.0,8.0,75,0.00,,SKC,0.11,VWS V14.01,2013-08-03 16:08:00,
2013-08-03 10:13:00,71.0,61.9,29.95,SE,132,7.0,10.0,73,0.00,,SKC,0.11,VWS V14.01,2013-08-03 16:13:00,
2013-08-03 10:18:00,71.4,61.5,29.95,SE,129,0.0,10.0,71,0.00,,SKC,0.11,VWS V14.01,2013-08-03 16:18:00,
2013-08-03 10:23:00,71.8,61.1,29.94,ESE,116,1.0,10.0,69,0.00,,SKC,0.11,VWS V14.01,2013-08-03 16:23:00,
2013-08-03 10:28:00,72.1,61.4,29.94,SE,137,5.0,11.0,69,0.00,,SKC,0.11,VWS V14.01,2013-08-03 16:28:00,
2013-08-03 10:30:00,72.5,61.8,29.95,SE,133,9.0,11.0,69,0.00,,,0.11,VWS V15.00,2013-08-03 16:30:00,
2013-08-03 10:33:00,72.5,61.8,29.95,SSE,151,5.0,11.0,69,0.00,,SKC,0.11,VWS V14.01,2013-08-03 16:33:00,
2013-08-03 10:38:00,72.8,61.6,29.95,SE,129,4.0,11.0,68,0.00,,SKC,0.11,VWS V14.01,2013-08-03 16:38:00,
2013-08-03 10:43:00,73.1,61.1,29.94,ESE,119,6.0,13.0,66,0.00,,SKC,0.11,VWS V14.01,2013-08-03 16:43:00,
2013-08-03 10:48:00,73.4,61.8,29.95,SE,142,3.0,13.0,67,0.00,,SKC,0.11,VWS V14.01,2013-08-03 16:48:00,
2013-08-03 10:53:00,73.8,61.3,29.94,SSE,161,5.0,13.0,65,0.00,,SKC,0.11,VWS V14.01,2013-08-03 16:53:00,
2013-08-03 10:58:00,74.1,61.2,29.94,SSE,155,5.0,13.0,64,0.00,,SKC,0.11,VWS V14.01,2013-08-03 16:58:00,
2013-08-03 11:00:00,74.5,61.5,29.95,SE,126,14.0,16.0,64,0.00,,,0.11,VWS V15.00,2013-08-03 17:00:00,
2013-08-03 11:03:00,74.4,61.4,29.95,SE,136,9.0,16.0,64,0.00,,SKC,0.11,VWS V14.01,2013-08-03 17:03:00,
2013-08-03 11:08:00,74.6,61.2,29.95,SE,133,10.0,15.0,63,0.00,,SKC,0.11,VWS V14.01,2013-08-03 17:08:00,
2013-08-03 11:13:00,74.1,60.3,29.96,SSE,147,7.0,19.0,62,0.00,,SKC,0.11,VWS V14.01,2013-08-03 17:13:00,
2013-08-03 11:18:00,73.9,60.5,29.96,SSE,160,10.0,19.0,63,0.00,,SKC,0.11,VWS V14.01,2013-08-03 17:18:00,
2013-08-03 11:23:00,74.1,60.7,29.95,SE,140,15.0,19.0,63,0.00,,SKC,0.11,VWS V14.01,2013-08-03 17:23:00,
2013-08-03 11:28:00,74.5,61.5,29.95,SE,138,11.0,19.0,64,0.00,,SKC,0.11,VWS V14.01,2013-08-03 17:28:00,
2013-08-03 11:30:00,74.6,60.3,29.95,SE,134,11.0,19.0,61,0.00,,,0.11,VWS V15.00,2013-08-03 17:30:00,
2013-08-03 11:33:00,74.6,60.3,29.95,SE,137,15.0,19.0,61,0.00,,SKC,0.11,VWS V14.01,2013-08-03 17:33:00,
2013-08-03 11:38:00,74.4,60.5,29.96,SSE,161,11.0,16.0,62,0.00,,SKC,0.11,VWS V14.01,2013-08-03 17:38:00,
2013-08-03 11:43:00,74.2,59.9,29.96,ESE,123,15.0,23.0,61,0.00,,SKC,0.11,VWS V14.01,2013-08-03 17:43:00,
2013-08-03 11:48:00,73.9,59.6,29.96,SE,130,19.0,23.0,61,0.00,,SKC,0.11,VWS V14.01,2013-08-03 17:48:00,
2013-08-03 11:53:00,73.1,58.9,29.96,SE,134,13.0,23.0,61,0.00,,SKC,0.11,VWS V14.01,2013-08-03 17:53:00,
2013-08-03 11:58:00,73.0,59.2,29.96,SE,128,14.0,23.0,62,0.00,,SKC,0.11,VWS V14.01,2013-08-03 17:58:00,
2013-08-03 12:00:00,72.8,58.6,29.97,SE,130,14.0,23.0,61,0.00,,,0.11,VWS V15.00,2013-08-03 18:00:00,
2013-08-03 12:03:00,72.8,58.6,29.97,SSE,167,11.0,23.0,61,0.00,,SKC,0.11,VWS V14.01,2013-08-03 18:03:00,
2013-08-03 12:08:00,72.7,58.0,29.96,SSE,156,10.0,20.0,60,0.00,,SKC,0.11,VWS V14.01,2013-08-03 18:08:00,
2013-08-03 12:13:00,72.8,57.7,29.96,SE,140,15.0,20.0,59,0.00,,SKC,0.11,VWS V14.01,2013-08-03 18:13:00,
2013-08-03 12:18:00,72.8,58.1,29.96,SE,137,14.0,21.0,60,0.00,,SKC,0.11,VWS V14.01,2013-08-03 18:18:00,
2013-08-03 12:23:00,73.0,58.8,29.96,ESE,114,7.0,23.0,61,0.00,,SKC,0.11,VWS V14.01,2013-08-03 18:23:00,
2013-08-03 12:28:00,73.3,60.0,29.96,SE,133,11.0,23.0,63,0.00,,SKC,0.11,VWS V14.01,2013-08-03 18:28:00,
2013-08-03 12:30:00,73.9,60.1,29.96,East,92,11.0,23.0,62,0.00,,,0.11,VWS V15.00,2013-08-03 18:30:00,
2013-08-03 12:33:00,73.9,60.1,29.96,SE,138,13.0,23.0,62,0.00,,SKC,0.11,VWS V14.01,2013-08-03 18:33:00,
2013-08-03 12:38:00,73.9,59.6,29.96,SSE,149,7.0,19.0,61,0.00,,SKC,0.11,VWS V14.01,2013-08-03 18:38:00,
2013-08-03 12:43:00,74.0,60.2,29.97,SE,140,15.0,19.0,62,0.00,,SKC,0.11,VWS V14.01,2013-08-03 18:43:00,
2013-08-03 12:48:00,73.4,59.6,29.96,SE,138,14.0,19.0,62,0.00,,SKC,0.11,VWS V14.01,2013-08-03 18:48:00,
2013-08-03 12:53:00,72.8,59.5,29.96,ESE,123,15.0,20.0,63,0.00,,SKC,0.11,VWS V14.01,2013-08-03 18:53:00,
2013-08-03 12:58:00,72.4,59.1,29.96,SE,132,10.0,20.0,63,0.00,,SKC,0.11,VWS V14.01,2013-08-03 18:58:00,
2013-08-03 13:00:00,72.1,60.1,29.98,SE,132,7.0,20.0,66,0.00,,,0.11,VWS V15.00,2013-08-03 19:00:00,
2013-08-03 13:03:00,72.2,60.7,29.98,SE,125,11.0,20.0,67,0.00,,SKC,0.11,VWS V14.01,2013-08-03 19:03:00,
2013-08-03 13:08:00,71.6,58.8,29.98,SE,129,8.0,18.0,64,0.01,,SKC,0.12,VWS V14.01,2013-08-03 19:08:00,
2013-08-03 13:13:00,71.2,60.5,29.97,ESE,120,15.0,18.0,69,0.01,,SKC,0.12,VWS V14.01,2013-08-03 19:13:00,
2013-08-03 13:18:00,71.0,59.9,29.97,SSE,163,11.0,20.0,68,0.01,,SKC,0.12,VWS V14.01,2013-08-03 19:18:00,
2013-08-03 13:23:00,71.8,59.8,29.96,SE,138,13.0,20.0,66,0.01,,SKC,0.12,VWS V14.01,2013-08-03 19:23:00,
2013-08-03 13:28:00,72.8,61.6,29.96,SSW,194,11.0,20.0,68,0.01,,SKC,0.12,VWS V14.01,2013-08-03 19:28:00,
2013-08-03 13:30:00,73.1,60.7,29.96,SSE,164,10.0,20.0,65,0.01,,,0.12,VWS V15.00,2013-08-03 19:30:00,
2013-08-03 13:32:00,73.1,60.7,29.96,SSE,150,10.0,20.0,65,0.01,,SKC,0.12,VWS V14.01,2013-08-03 19:32:00,
2013-08-03 13:38:00,73.1,60.2,29.96,South,183,6.0,19.0,64,0.01,,SKC,0.12,VWS V14.01,2013-08-03 19:38:00,
2013-08-03 13:43:00,73.0,60.1,29.96,ESE,104,14.0,19.0,64,0.01,,SKC,0.12,VWS V14.01,2013-08-03 19:43:00,
2013-08-03 13:48:00,73.0,60.1,29.96,SE,138,9.0,19.0,64,0.01,,SKC,0.12,VWS V14.01,2013-08-03 19:48:00,
2013-08-03 13:53:00,73.1,61.1,29.96,SSE,152,9.0,19.0,66,0.01,,SKC,0.12,VWS V14.01,2013-08-03 19:53:00,
2013-08-03 13:58:00,73.3,61.7,29.95,ESE,121,3.0,19.0,67,0.01,,SKC,0.12,VWS V14.01,2013-08-03 19:58:00,
2013-08-03 14:00:00,74.3,62.2,29.95,SSE,150,12.0,20.0,66,0.01,,,0.12,VWS V15.00,2013-08-03 20:00:00,
2013-08-03 14:03:00,74.2,61.7,29.95,SE,131,11.0,20.0,65,0.01,,SKC,0.12,VWS V14.01,2013-08-03 20:03:00,
2013-08-03 14:08:00,74.7,61.3,29.95,SE,134,10.0,19.0,63,0.01,,SKC,0.12,VWS V14.01,2013-08-03 20:08:00,
2013-08-03 14:13:00,75.3,62.3,29.95,SSE,154,11.0,22.0,64,0.01,,SKC,0.12,VWS V14.01,2013-08-03 20:13:00,
2013-08-03 14:18:00,75.9,61.5,29.95,SE,126,12.0,22.0,61,0.01,,SKC,0.12,VWS V14.01,2013-08-03 20:18:00,
2013-08-03 14:23:00,76.5,61.6,29.95,ESE,111,13.0,22.0,60,0.01,,SKC,0.12,VWS V14.01,2013-08-03 20:23:00,
2013-08-03 14:28:00,77.0,61.1,29.94,SSE,147,10.0,24.0,58,0.01,,SKC,0.12,VWS V14.01,2013-08-03 20:28:00,
2013-08-03 14:30:00,77.1,61.2,29.94,SE,146,18.0,24.0,58,0.01,,,0.12,VWS V15.00,2013-08-03 20:30:00,
2013-08-03 14:33:00,77.1,61.2,29.94,SE,134,15.0,24.0,58,0.01,,SKC,0.12,VWS V14.01,2013-08-03 20:33:00,
2013-08-03 14:38:00,77.0,61.6,29.94,South,175,10.0,19.0,59,0.00,,SKC,0.12,VWS V14.01,2013-08-03 20:38:00,
2013-08-03 14:43:00,77.5,61.1,29.93,North,360,12.0,24.0,57,0.00,,SKC,0.12,VWS V14.01,2013-08-03 20:43:00,
2013-08-03 14:48:00,77.5,61.1,29.93,SSE,149,11.0,24.0,57,0.00,,SKC,0.12,VWS V14.01,2013-08-03 20:48:00,
2013-08-03 14:53:00,77.4,61.0,29.93,ESE,120,21.0,24.0,57,0.00,,SKC,0.12,VWS V14.01,2013-08-03 20:53:00,
2013-08-03 14:58:00,77.4,61.0,29.93,SSE,153,11.0,24.0,57,0.00,,SKC,0.12,VWS V14.01,2013-08-03 20:58:00,
2013-08-03 15:00:00,77.2,61.3,29.93,SE,130,16.0,24.0,58,0.00,,,0.12,VWS V15.00,2013-08-03 21:00:00,
2013-08-03 15:03:00,77.2,60.3,29.93,North,360,10.0,24.0,56,0.00,,SKC,0.12,VWS V14.01,2013-08-03 21:03:00,
2013-08-03 15:08:00,77.4,61.0,29.93,South,171,7.0,19.0,57,0.00,,SKC,0.12,VWS V14.01,2013-08-03 21:08:00,
2013-08-03 15:13:00,78.1,60.6,29.93,SE,146,11.0,19.0,55,0.00,,SKC,0.12,VWS V14.01,2013-08-03 21:13:00,
2013-08-03 15:18:00,78.2,60.7,29.92,South,171,14.0,22.0,55,0.00,,SKC,0.12,VWS V14.01,2013-08-03 21:18:00,
2013-08-03 15:23:00,78.8,60.8,29.92,SSE,159,15.0,22.0,54,0.00,,SKC,0.12,VWS V14.01,2013-08-03 21:23:00,
2013-08-03 15:28:00,79.1,61.6,29.91,SSE,163,12.0,22.0,55,0.00,,SKC,0.12,VWS V14.01,2013-08-03 21:28:00,
2013-08-03 15:30:00,79.2,61.7,29.91,South,174,18.0,22.0,55,0.00,,,0.12,VWS V15.00,2013-08-03 21:30:00,
2013-08-03 15:33:00,79.2,61.7,29.91,SSE,155,12.0,22.0,55,0.00,,SKC,0.12,VWS V14.01,2013-08-03 21:33:00,
2013-08-03 15:38:00,79.1,60.5,29.91,South,181,14.0,21.0,53,0.00,,SKC,0.12,VWS V14.01,2013-08-03 21:38:00,
2013-08-03 15:42:00,78.9,59.8,29.91,ESE,121,14.0,22.0,52,0.00,,SKC,0.12,VWS V14.01,2013-08-03 21:42:00,
2013-08-03 15:48:00,78.7,60.2,29.91,SSE,157,14.0,22.0,53,0.00,,SKC,0.12,VWS V14.01,2013-08-03 21:48:00,
2013-08-03 15:53:00,78.8,60.2,29.91,North,360,7.0,23.0,53,0.00,,SKC,0.12,VWS V14.01,2013-08-03 21:53:00,
2013-08-03 15:57:00,79.2,61.1,29.90,SSE,163,12.0,23.0,54,0.00,,SKC,0.12,VWS V14.01,2013-08-03 21:57:00,
2013-08-03 16:00:00,79.7,60.5,29.90,SE,143,11.0,23.0,52,0.00,,,0.12,VWS V15.00,2013-08-03 22:00:00,
2013-08-03 16:03:00,79.7,60.5,29.90,SE,132,13.0,23.0,52,0.00,,SKC,0.12,VWS V14.01,2013-08-03 22:03:00,
2013-08-03 16:07:00,80.0,60.3,29.89,SE,145,16.0,16.0,51,0.00,,SKC,0.12,VWS V14.01,2013-08-03 22:07:00,
2013-08-03 16:13:00,80.0,60.8,29.89,SE,134,17.0,19.0,52,0.00,,SKC,0.12,VWS V14.01,2013-08-03 22:13:00,
2013-08-03 16:18:00,80.0,60.8,29.89,SSE,161,17.0,19.0,52,0.00,,SKC,0.12,VWS V14.01,2013-08-03 22:18:00,
2013-08-03 16:23:00,80.0,60.3,29.89,North,360,12.0,19.0,51,0.00,,SKC,0.12,VWS V14.01,2013-08-03 22:23:00,
2013-08-03 16:28:00,79.8,60.1,29.89,South,175,14.0,19.0,51,0.00,,SKC,0.12,VWS V14.01,2013-08-03 22:28:00,
2013-08-03 16:30:00,80.0,60.3,29.89,North,360,10.0,19.0,51,0.00,,,0.12,VWS V15.00,2013-08-03 22:30:00,
2013-08-03 16:33:00,80.0,60.3,29.89,SE,137,11.0,19.0,51,0.00,,SKC,0.12,VWS V14.01,2013-08-03 22:33:00,
2013-08-03 16:38:00,80.0,60.3,29.88,ESE,119,14.0,20.0,51,0.00,,SKC,0.12,VWS V14.01,2013-08-03 22:38:00,
2013-08-03 16:43:00,80.0,60.3,29.88,SE,131,16.0,21.0,51,0.00,,SKC,0.12,VWS V14.01,2013-08-03 22:43:00,
2013-08-03 16:48:00,79.7,60.0,29.88,SE,130,21.0,24.0,51,0.00,,SKC,0.12,VWS V14.01,2013-08-03 22:48:00,
2013-08-03 16:52:00,79.7,60.5,29.88,SSE,156,6.0,24.0,52,0.00,,SKC,0.12,VWS V14.01,2013-08-03 22:52:00,
2013-08-03 16:57:00,79.8,60.1,29.88,SSE,155,15.0,24.0,51,0.00,,SKC,0.12,VWS V14.01,2013-08-03 22:57:00,
2013-08-03 17:00:00,80.1,60.9,29.88,SSE,149,13.0,24.0,52,0.00,,,0.12,VWS V15.00,2013-08-03 23:00:00,
2013-08-03 17:02:00,80.0,60.3,29.88,SSE,167,11.0,24.0,51,0.00,,SKC,0.12,VWS V14.01,2013-08-03 23:02:00,
2013-08-03 17:08:00,80.1,61.4,29.89,North,360,12.0,23.0,53,0.00,,SKC,0.12,VWS V14.01,2013-08-03 23:08:00,
2013-08-03 17:13:00,79.6,61.0,29.89,SSE,155,11.0,23.0,53,0.00,,SKC,0.12,VWS V14.01,2013-08-03 23:13:00,
2013-08-03 17:18:00,79.4,61.8,29.89,SSE,150,12.0,23.0,55,0.00,,SKC,0.12,VWS V14.01,2013-08-03 23:18:00,
2013-08-03 17:23:00,79.4,61.8,29.89,East,88,14.0,23.0,55,0.00,,SKC,0.12,VWS V14.01,2013-08-03 23:23:00,
2013-08-03 17:28:00,79.3,61.2,29.89,ESE,109,18.0,23.0,54,0.00,,SKC,0.12,VWS V14.01,2013-08-03 23:28:00,
2013-08-03 17:30:00,79.4,61.8,29.89,ESE,115,10.0,23.0,55,0.00,,,0.12,VWS V15.00,2013-08-03 23:30:00,
2013-08-03 17:33:00,79.4,61.8,29.89,SSE,154,13.0,23.0,55,0.00,,SKC,0.12,VWS V14.01,2013-08-03 23:33:00,
2013-08-03 17:38:00,79.4,62.3,29.89,SSE,159,11.0,21.0,56,0.00,,SKC,0.12,VWS V14.01,2013-08-03 23:38:00,
2013-08-03 17:43:00,79.2,62.2,29.88,North,360,12.0,21.0,56,0.00,,SKC,0.12,VWS V14.01,2013-08-03 23:43:00,
2013-08-03 17:48:00,78.9,62.4,29.88,SSE,165,12.0,21.0,57,0.00,,SKC,0.12,VWS V14.01,2013-08-03 23:48:00,
2013-08-03 17:53:00,78.8,61.8,29.87,SE,136,25.0,25.0,56,0.00,,SKC,0.12,VWS V14.01,2013-08-03 23:53:00,
2013-08-03 17:58:00,78.7,61.7,29.87,SSE,161,16.0,25.0,56,0.00,,SKC,0.12,VWS V14.01,2013-08-03 23:58:00,
2013-08-03 18:00:00,78.4,62.4,29.88,SE,132,16.0,25.0,58,0.00,,,0.12,VWS V15.00,2013-08-04 00:00:00,
2013-08-03 18:03:00,78.4,62.4,29.88,SE,126,8.0,25.0,58,0.00,,SKC,0.12,VWS V14.01,2013-08-04 00:03:00,
2013-08-03 18:08:00,78.4,62.4,29.87,SSE,165,11.0,20.0,58,0.00,,SKC,0.12,VWS V14.01,2013-08-04 00:08:00,
2013-08-03 18:13:00,78.5,62.0,29.86,SSE,159,11.0,22.0,57,0.00,,SKC,0.12,VWS V14.01,2013-08-04 00:13:00,
2013-08-03 18:18:00,78.6,61.6,29.86,SSE,161,14.0,23.0,56,0.00,,SKC,0.12,VWS V14.01,2013-08-04 00:18:00,
2013-08-03 18:23:00,78.6,62.1,29.86,ESE,121,16.0,23.0,57,0.00,,SKC,0.12,VWS V14.01,2013-08-04 00:23:00,
2013-08-03 18:28:00,78.7,62.2,29.86,SSE,153,12.0,23.0,57,0.00,,SKC,0.12,VWS V14.01,2013-08-04 00:28:00,
2013-08-03 18:30:00,78.8,61.8,29.86,SE,129,16.0,23.0,56,0.00,,,0.12,VWS V15.00,2013-08-04 00:30:00,
2013-08-03 18:33:00,78.7,61.7,29.86,SSE,148,12.0,23.0,56,0.00,,SKC,0.12,VWS V14.01,2013-08-04 00:33:00,
2013-08-03 18:38:00,78.7,61.7,29.86,ESE,103,11.0,22.0,56,0.00,,SKC,0.12,VWS V14.01,2013-08-04 00:38:00,
2013-08-03 18:43:00,78.7,61.7,29.87,SE,144,10.0,22.0,56,0.00,,SKC,0.12,VWS V14.01,2013-08-04 00:43:00,
2013-08-03 18:48:00,78.2,61.2,29.87,SE,131,14.0,22.0,56,0.00,,SKC,0.12,VWS V14.01,2013-08-04 00:48:00,
2013-08-03 18:53:00,77.9,62.0,29.87,SSE,157,11.0,22.0,58,0.00,,SKC,0.12,VWS V14.01,2013-08-04 00:53:00,
2013-08-03 18:58:00,77.6,62.2,29.87,SE,138,17.0,22.0,59,0.00,,SKC,0.12,VWS V14.01,2013-08-04 00:58:00,
2013-08-03 19:00:00,77.3,62.3,29.87,ESE,118,16.0,22.0,60,0.00,,,0.12,VWS V15.00,2013-08-04 01:00:00,
2013-08-03 19:03:00,77.3,62.3,29.87,SE,128,15.0,22.0,60,0.00,,SKC,0.12,VWS V14.01,2013-08-04 01:03:00,
2013-08-03 19:08:00,77.0,62.5,29.87,North,360,15.0,20.0,61,0.00,,SKC,0.12,VWS V14.01,2013-08-04 01:08:00,
2013-08-03 19:13:00,76.7,62.7,29.87,SE,127,16.0,20.0,62,0.00,,SKC,0.12,VWS V14.01,2013-08-04 01:13:00,
2013-08-03 19:18:00,76.4,62.9,29.87,North,360,9.0,20.0,63,0.00,,SKC,0.12,VWS V14.01,2013-08-04 01:18:00,
2013-08-03 19:23:00,76.2,63.1,29.87,North,360,9.0,20.0,64,0.00,,SKC,0.12,VWS V14.01,2013-08-04 01:23:00,
2013-08-03 19:28:00,76.0,63.0,29.87,SE,131,20.0,20.0,64,0.00,,SKC,0.12,VWS V14.01,2013-08-04 01:28:00,
2013-08-03 19:30:00,75.4,62.8,29.87,SE,124,16.0,21.0,65,0.00,,,0.12,VWS V15.00,2013-08-04 01:30:00,
2013-08-03 19:33:00,75.4,62.8,29.87,SE,137,21.0,21.0,65,0.00,,SKC,0.12,VWS V14.01,2013-08-04 01:33:00,
2013-08-03 19:38:00,74.9,62.8,29.88,SE,138,11.0,20.0,66,0.00,,SKC,0.12,VWS V14.01,2013-08-04 01:38:00,
2013-08-03 19:43:00,74.6,62.5,29.88,SE,144,16.0,20.0,66,0.00,,SKC,0.12,VWS V14.01,2013-08-04 01:43:00,
2013-08-03 19:48:00,74.3,62.6,29.88,SE,140,11.0,20.0,67,0.00,,SKC,0.12,VWS V14.01,2013-08-04 01:48:00,
2013-08-03 19:53:00,74.0,62.8,29.88,North,360,10.0,20.0,68,0.00,,SKC,0.12,VWS V14.01,2013-08-04 01:53:00,
2013-08-03 19:58:00,73.7,62.5,29.88,SE,144,9.0,20.0,68,0.00,,SKC,0.12,VWS V14.01,2013-08-04 01:58:00,
2013-08-03 20:00:00,73.3,62.5,29.89,SE,128,11.0,20.0,69,0.00,,,0.12,VWS V15.00,2013-08-04 02:00:00,
2013-08-03 20:03:00,73.4,62.6,29.89,SSE,154,13.0,20.0,69,0.00,,SKC,0.12,VWS V14.01,2013-08-04 02:03:00,
2013-08-03 20:08:00,73.0,62.7,29.87,ESE,118,10.0,13.0,70,0.00,,SKC,0.12,VWS V14.01,2013-08-04 02:08:00,
2013-08-03 20:13:00,72.6,62.7,29.87,SSE,155,10.0,15.0,71,0.00,,SKC,0.12,VWS V14.01,2013-08-04 02:13:00,
2013-08-03 20:18:00,72.3,62.4,29.87,ENE,57,4.0,15.0,71,0.00,,SKC,0.12,VWS V14.01,2013-08-04 02:18:00,
2013-08-03 20:23:00,71.9,62.4,29.87,SSE,153,5.0,15.0,72,0.00,,SKC,0.12,VWS V14.01,2013-08-04 02:23:00,
2013-08-03 20:28:00,71.5,62.4,29.87,NE,52,6.0,15.0,73,0.00,,SKC,0.12,VWS V14.01,2013-08-04 02:28:00,
2013-08-03 20:30:00,71.2,62.1,29.88,SSE,167,7.0,15.0,73,0.00,,,0.12,VWS V15.00,2013-08-04 02:30:00,
2013-08-03 20:33:00,71.2,62.1,29.88,North,360,2.0,15.0,73,0.00,,SKC,0.12,VWS V14.01,2013-08-04 02:33:00,
2013-08-03 20:38:00,70.9,62.2,29.87,SSE,156,4.0,12.0,74,0.00,,SKC,0.12,VWS V14.01,2013-08-04 02:38:00,
2013-08-03 20:43:00,70.6,61.9,29.88,SE,130,3.0,12.0,74,0.00,,SKC,0.12,VWS V14.01,2013-08-04 02:43:00,
2013-08-03 20:48:00,70.5,62.2,29.88,SSE,163,6.0,12.0,75,0.00,,SKC,0.12,VWS V14.01,2013-08-04 02:48:00,
2013-08-03 20:53:00,70.4,62.1,29.88,SE,137,1.0,12.0,75,0.00,,SKC,0.12,VWS V14.01,2013-08-04 02:53:00,
2013-08-03 20:58:00,70.2,61.9,29.87,ENE,75,2.0,12.0,75,0.00,,SKC,0.12,VWS V14.01,2013-08-04 02:58:00,
2013-08-03 21:00:00,69.9,62.0,29.87,SSE,164,1.0,12.0,76,0.00,,,0.12,VWS V15.00,2013-08-04 03:00:00,
2013-08-03 21:03:00,69.9,62.0,29.87,SE,140,2.0,12.0,76,0.00,,SKC,0.12,VWS V14.01,2013-08-04 03:03:00,
2013-08-03 21:08:00,69.6,61.7,29.85,SE,144,4.0,9.0,76,0.00,,SKC,0.12,VWS V14.01,2013-08-04 03:08:00,
2013-08-03 21:13:00,69.4,61.9,29.85,North,360,4.0,10.0,77,0.00,,SKC,0.12,VWS V14.01,2013-08-04 03:13:00,
2013-08-03 21:18:00,69.2,62.1,29.85,SE,129,0.0,10.0,78,0.00,,SKC,0.12,VWS V14.01,2013-08-04 03:18:00,
2013-08-03 21:23:00,69.0,61.9,29.85,North,360,6.0,10.0,78,0.00,,SKC,0.12,VWS V14.01,2013-08-04 03:23:00,
2013-08-03 21:28:00,68.9,62.1,29.84,ESE,116,4.0,10.0,79,0.00,,SKC,0.12,VWS V14.01,2013-08-04 03:28:00,
2013-08-03 21:30:00,68.7,62.3,29.85,SE,132,3.0,10.0,80,0.00,,,0.12,VWS V15.00,2013-08-04 03:30:00,
2013-08-03 21:33:00,68.8,62.4,29.85,SE,126,4.0,10.0,80,0.00,,SKC,0.12,VWS V14.01,2013-08-04 03:33:00,
2013-08-03 21:38:00,68.6,62.2,29.84,ENE,76,0.0,3.0,80,0.00,,SKC,0.12,VWS V14.01,2013-08-04 03:38:00,
2013-08-03 21:43:00,68.5,62.5,29.84,East,84,0.0,3.0,81,0.00,,SKC,0.12,VWS V14.01,2013-08-04 03:43:00,
2013-08-03 21:48:00,68.3,62.2,29.84,East,83,0.0,3.0,81,0.00,,SKC,0.12,VWS V14.01,2013-08-04 03:48:00,
2013-08-03 21:53:00,68.0,62.3,29.84,East,84,0.0,3.0,82,0.00,,SKC,0.12,VWS V14.01,2013-08-04 03:53:00,
2013-08-03 21:58:00,67.9,62.2,29.83,East,84,0.0,3.0,82,0.00,,SKC,0.12,VWS V14.01,2013-08-04 03:58:00,
2013-08-03 22:00:00,67.6,62.3,29.84,East,83,0.0,3.0,83,0.00,,,0.12,VWS V15.00,2013-08-04 04:00:00,
2013-08-03 22:01:00,67.7,62.4,29.84,East,83,0.0,3.0,83,0.00,,SKC,0.12,VWS V14.01,2013-08-04 04:01:00,
2013-08-03 22:06:00,67.5,62.2,29.83,East,83,0.0,0.0,83,0.00,,SKC,0.12,VWS V14.01,2013-08-04 04:06:00,
2013-08-03 22:11:00,67.3,62.3,29.83,SE,138,9.0,9.0,84,0.00,,SKC,0.12,VWS V14.01,2013-08-04 04:11:00,
2013-08-03 22:17:00,68.3,63.3,29.84,SSE,159,11.0,14.0,84,0.00,,SKC,0.12,VWS V14.01,2013-08-04 04:17:00,
2013-08-03 22:22:00,69.8,63.4,29.83,SSE,148,13.0,18.0,80,0.00,,SKC,0.12,VWS V14.01,2013-08-04 04:22:00,
2013-08-03 22:27:00,70.9,63.3,29.83,SE,146,18.0,18.0,77,0.00,,SKC,0.12,VWS V14.01,2013-08-04 04:27:00,
2013-08-03 22:30:00,71.3,63.3,29.85,SSE,163,11.0,18.0,76,0.00,,,0.12,VWS V15.00,2013-08-04 04:30:00,
2013-08-03 22:32:00,71.3,63.3,29.84,ESE,108,3.0,18.0,76,0.00,,SKC,0.12,VWS V14.01,2013-08-04 04:32:00,
2013-08-03 22:37:00,71.4,63.5,29.85,SSE,150,5.0,14.0,76,0.00,,SKC,0.12,VWS V14.01,2013-08-04 04:37:00,
2013-08-03 22:42:00,71.4,63.5,29.85,South,174,7.0,14.0,76,0.00,,SKC,0.12,VWS V14.01,2013-08-04 04:42:00,
2013-08-03 22:47:00,71.3,63.3,29.86,SE,144,10.0,14.0,76,0.00,,SKC,0.12,VWS V14.01,2013-08-04 04:47:00,
2013-08-03 22:52:00,71.3,63.3,29.87,North,360,5.0,14.0,76,0.00,,SKC,0.12,VWS V14.01,2013-08-04 04:52:00,
2013-08-03 22:57:00,71.3,63.3,29.87,SSE,162,4.0,14.0,76,0.00,,SKC,0.12,VWS V14.01,2013-08-04 04:57:00,
2013-08-03 23:00:00,71.2,63.3,29.88,SSE,155,0.0,14.0,76,0.00,,,0.12,VWS V15.00,2013-08-04 05:00:00,
2013-08-03 23:02:00,71.3,63.3,29.88,SSE,155,0.0,14.0,76,0.00,,SKC,0.12,VWS V14.01,2013-08-04 05:02:00,
2013-08-03 23:07:00,71.3,63.3,29.89,SSE,155,0.0,0.0,76,0.00,,SKC,0.12,VWS V14.01,2013-08-04 05:07:00,
2013-08-03 23:12:00,71.3,63.3,29.89,SSE,155,0.0,0.0,76,0.00,,SKC,0.12,VWS V14.01,2013-08-04 05:12:00,
2013-08-03 23:17:00,71.2,63.3,29.89,SSE,155,0.0,0.0,76,0.00,,SKC,0.12,VWS V14.01,2013-08-04 05:17:00,
2013-08-03 23:22:00,71.3,63.3,29.90,SSE,155,0.0,0.0,76,0.00,,SKC,0.12,VWS V14.01,2013-08-04 05:22:00,
2013-08-03 23:27:00,71.3,63.3,29.89,SSE,155,0.0,0.0,76,0.00,,SKC,0.12,VWS V14.01,2013-08-04 05:27:00,
2013-08-03 23:30:00,71.2,63.3,29.89,SE,142,0.0,0.0,76,0.00,,,0.12,VWS V15.00,2013-08-04 05:30:00,
2013-08-03 23:32:00,71.2,63.3,29.89,SE,142,0.0,0.0,76,0.00,,SKC,0.12,VWS V14.01,2013-08-04 05:32:00,
2013-08-03 23:37:00,71.2,63.6,29.88,SE,137,0.0,0.0,77,0.00,,SKC,0.12,VWS V14.01,2013-08-04 05:37:00,
2013-08-03 23:42:00,71.2,63.6,29.88,SE,125,0.0,0.0,77,0.00,,SKC,0.12,VWS V14.01,2013-08-04 05:42:00,
2013-08-03 23:47:00,71.1,63.5,29.88,East,101,0.0,0.0,77,0.00,,SKC,0.12,VWS V14.01,2013-08-04 05:47:00,
2013-08-03 23:52:00,71.0,63.8,29.88,SE,131,0.0,0.0,78,0.00,,SKC,0.12,VWS V14.01,2013-08-04 05:52:00,
2013-08-03 23:57:00,71.0,63.8,29.88,SE,132,0.0,0.0,78,0.00,,SKC,0.12,VWS V14.01,2013-08-04 05:57:00,